Regional Weather Roundup
Issued by NWS

Home | Current Version | Previous Version | Graphics & Text | Print | Product List | Glossary On
Versions: 1 2 3 4 5 6 7 8 9 10 11 12 13 14 15 16 17 18 19 20 21 22 23 24 25 26 27 28 29 30 31 32 33 34 35 36 37 38 39 40 41 42 43 44 45 46 47 48 49 50
000
ASUS43 KTOP 200059
RWRKS

WEATHER ROUNDUP FOR KANSAS
NATIONAL WEATHER SERVICE GOODLAND KS
800 PM CDT SAT AUG 19 2017

NOTE:  "FAIR" INDICATES FEW OR NO CLOUDS BELOW 12,000 FEET WITH NO
SIGNIFICANT WEATHER AND/OR OBSTRUCTIONS TO VISIBILITY.

KSZ001>006-013>018-027>032-041>047-200200-
NORTHWEST KANSAS

CITY           SKY/WX    TMP DP  RH WIND       PRES   REMARKS
GOODLAND       CLEAR     86  58  38 S12G23    29.90R
HAYS           CLEAR     89  65  44 SE9       29.84S
HILL CITY      CLOUDY    91  59  33 S7        29.84R
RUSSELL        CLEAR     91  62  37 SE13      29.83S
$$

KSZ061>065-074>080-084>089-200200-
SOUTHWEST KANSAS

CITY           SKY/WX    TMP DP  RH WIND       PRES   REMARKS
DODGE CITY     CLOUDY    88  60  38 S8        29.91R
ELKHART          N/A     80  59  48 SW12        N/A
GARDEN CITY    PTCLDY    82  65  56 S6        29.92R
GREAT BEND     CLEAR     87  69  54 SE10      29.86S
LIBERAL        MOCLDY    83  69  62 S8        29.94S
$$

KSZ066>073-081>083-090>101-200200-
SOUTHEAST KANSAS

CITY           SKY/WX    TMP DP  RH WIND       PRES   REMARKS
CHANUTE        CLOUDY    83  77  82 E6        29.91R
COFFEYVILLE    CLOUDY    85  78  80 SE3       29.89R HX  96
HUTCHINSON     CLOUDY    85  64  49 SE13      29.88R
MEDICINE LODGE   N/A     90  66  45 SE5       29.87R
NEWTON         CLEAR     84  70  62 S8        29.91R
PARSONS        CLOUDY    83  77  82 CALM      29.91R
WICHITA INTL   CLOUDY    82  67  60 S7        29.88S
WICHITA JABRA  CLOUDY    81  67  62 S7        29.89R
WICHITA MCCONL CLOUDY    83  64  52 S6        29.89S
WINFIELD       CLOUDY    87  76  69 VRB3      29.90R HX  97
$$

KSZ007>012-019>026-033>040-048>060-102>105-200200-
NORTHEAST KANSAS

CITY           SKY/WX    TMP DP  RH WIND       PRES   REMARKS
CONCORDIA      CLEAR     83  74  74 SE10      29.84S
EMPORIA        CLEAR     84  75  74 SE9       29.89S
LAWRENCE       CLEAR     82  74  76 E6        29.88S
MANHATTAN      CLEAR     86  76  71 S7        29.86S HX  96
OLATHE IND     CLEAR     83  73  72 SE9       29.91S
OLATHE EXE     CLEAR     82  73  74 SE6       29.91S
SALINA         CLEAR     94  68  42 SE13      29.85R HX  98
TOPEKA BILLARD CLEAR     85  75  72 SE5       29.87S
TOPEKA FORBES  CLEAR     86  75  69 SE7       29.89R HX  95
$$




USA.gov is the U.S. government's official web portal to all federal, state and local government web resources and services.